Time,TemperatureF,DewpointF,PressureIn,WindDirection,WindDirectionDegrees,WindSpeedMPH,WindSpeedGustMPH,Humidity,HourlyPrecipIn,Conditions,Clouds,dailyrainin,SoftwareType,DateUTC
2013-10-14 00:03:00,41.3,36.2,30.37,WSW,253,0.0,0.0,82,0.00,,CLR,0.00,VWS V14.01,2013-10-14 05:03:00,
2013-10-14 00:08:00,41.2,36.1,30.37,WSW,253,0.0,0.0,82,0.00,,CLR,0.00,VWS V14.01,2013-10-14 05:08:00,
2013-10-14 00:13:00,41.1,36.0,30.37,WSW,253,0.0,0.0,82,0.00,,CLR,0.00,VWS V14.01,2013-10-14 05:13:00,
2013-10-14 00:18:00,41.1,36.0,30.37,WSW,253,0.0,0.0,82,0.00,,CLR,0.00,VWS V14.01,2013-10-14 05:18:00,
2013-10-14 00:23:00,41.1,36.0,30.38,WSW,253,0.0,0.0,82,0.00,,CLR,0.00,VWS V14.01,2013-10-14 05:23:00,
2013-10-14 00:28:00,41.0,35.9,30.37,WSW,253,0.0,0.0,82,0.00,,CLR,0.00,VWS V14.01,2013-10-14 05:28:00,
2013-10-14 00:33:00,40.9,36.1,30.37,WSW,253,0.0,0.0,83,0.00,,CLR,0.00,VWS V14.01,2013-10-14 05:33:00,
2013-10-14 00:38:00,40.8,36.0,30.37,WSW,253,0.0,0.0,83,0.00,,CLR,0.00,VWS V14.01,2013-10-14 05:38:00,
2013-10-14 00:44:00,40.6,36.2,30.38,WSW,253,0.0,0.0,84,0.00,,CLR,0.00,VWS V14.01,2013-10-14 05:44:00,
2013-10-14 00:49:00,40.5,36.0,30.38,WSW,253,0.0,0.0,84,0.00,,CLR,0.00,VWS V14.01,2013-10-14 05:49:00,
2013-10-14 00:54:00,40.3,35.9,30.38,WSW,253,0.0,0.0,84,0.00,,CLR,0.00,VWS V14.01,2013-10-14 05:54:00,
2013-10-14 00:59:00,40.2,36.1,30.38,WSW,253,0.0,0.0,85,0.00,,CLR,0.00,VWS V14.01,2013-10-14 05:59:00,
2013-10-14 01:04:00,40.1,36.0,30.38,WSW,253,0.0,0.0,85,0.00,,CLR,0.00,VWS V14.01,2013-10-14 06:04:00,
2013-10-14 01:10:00,40.1,36.0,30.38,WSW,253,0.0,0.0,85,0.00,,CLR,0.00,VWS V14.01,2013-10-14 06:10:00,
2013-10-14 01:15:00,40.0,35.9,30.39,WSW,253,0.0,0.0,85,0.00,,CLR,0.00,VWS V14.01,2013-10-14 06:15:00,
2013-10-14 01:20:00,39.9,36.1,30.39,WSW,253,0.0,0.0,86,0.00,,CLR,0.00,VWS V14.01,2013-10-14 06:20:00,
2013-10-14 01:25:00,39.8,36.0,30.39,WSW,253,0.0,0.0,86,0.00,,CLR,0.00,VWS V14.01,2013-10-14 06:25:00,
2013-10-14 01:30:00,39.8,36.0,30.38,WSW,253,0.0,0.0,86,0.00,,CLR,0.00,VWS V14.01,2013-10-14 06:30:00,
2013-10-14 01:35:00,39.8,36.2,30.38,WSW,253,0.0,0.0,87,0.00,,CLR,0.00,VWS V14.01,2013-10-14 06:35:00,
2013-10-14 01:41:00,39.8,36.0,30.38,WSW,253,0.0,0.0,86,0.00,,CLR,0.00,VWS V14.01,2013-10-14 06:41:00,
2013-10-14 01:46:00,39.8,36.0,30.38,WSW,252,0.0,0.0,86,0.00,,CLR,0.00,VWS V14.01,2013-10-14 06:46:00,
2013-10-14 01:52:00,40.0,36.2,30.38,WSW,253,0.0,0.0,86,0.00,,CLR,0.00,VWS V14.01,2013-10-14 06:52:00,
2013-10-14 01:57:00,40.0,35.9,30.38,WSW,253,0.0,0.0,85,0.00,,CLR,0.00,VWS V14.01,2013-10-14 06:57:00,
2013-10-14 02:02:00,39.9,35.8,30.38,WSW,253,0.0,0.0,85,0.00,,CLR,0.00,VWS V14.01,2013-10-14 07:02:00,
2013-10-14 02:08:00,39.9,36.1,30.38,WSW,253,0.0,0.0,86,0.00,,CLR,0.00,VWS V14.01,2013-10-14 07:08:00,
2013-10-14 02:13:00,39.9,36.1,30.38,WSW,253,0.0,0.0,86,0.00,,CLR,0.00,VWS V14.01,2013-10-14 07:13:00,
2013-10-14 02:19:00,39.9,36.1,30.38,WSW,253,0.0,0.0,86,0.00,,CLR,0.00,VWS V14.01,2013-10-14 07:19:00,
2013-10-14 02:25:00,39.9,35.8,30.38,WSW,253,0.0,0.0,85,0.00,,CLR,0.00,VWS V14.01,2013-10-14 07:25:00,
2013-10-14 02:30:00,40.0,35.9,30.38,WSW,253,0.0,0.0,85,0.00,,CLR,0.00,VWS V14.01,2013-10-14 07:30:00,
2013-10-14 02:35:00,40.0,35.9,30.38,WSW,253,0.0,0.0,85,0.00,,CLR,0.00,VWS V14.01,2013-10-14 07:35:00,
2013-10-14 02:40:00,40.1,36.0,30.38,WSW,253,0.0,0.0,85,0.00,,CLR,0.00,VWS V14.01,2013-10-14 07:40:00,
2013-10-14 02:45:00,40.3,36.2,30.38,WSW,253,0.0,0.0,85,0.00,,CLR,0.00,VWS V14.01,2013-10-14 07:45:00,
2013-10-14 02:50:00,40.4,36.3,30.38,WSW,253,0.0,0.0,85,0.00,,CLR,0.00,VWS V14.01,2013-10-14 07:50:00,
2013-10-14 02:56:00,40.3,36.2,30.38,WSW,253,0.0,0.0,85,0.00,,CLR,0.00,VWS V14.01,2013-10-14 07:56:00,
2013-10-14 03:01:00,40.2,35.8,30.38,WSW,253,0.0,0.0,84,0.00,,CLR,0.00,VWS V14.01,2013-10-14 08:01:00,
2013-10-14 03:06:00,40.0,35.6,30.37,WSW,253,0.0,0.0,84,0.00,,CLR,0.00,VWS V14.01,2013-10-14 08:06:00,
2013-10-14 03:11:00,39.9,35.5,30.37,WSW,253,0.0,0.0,84,0.00,,CLR,0.00,VWS V14.01,2013-10-14 08:11:00,
2013-10-14 03:16:00,40.0,35.6,30.37,WSW,253,0.0,0.0,84,0.00,,CLR,0.00,VWS V14.01,2013-10-14 08:16:00,
2013-10-14 03:21:00,40.3,35.6,30.37,WSW,253,0.0,0.0,83,0.00,,CLR,0.00,VWS V14.01,2013-10-14 08:21:00,
2013-10-14 03:27:00,40.4,35.7,30.37,WSW,253,0.0,0.0,83,0.00,,CLR,0.00,VWS V14.01,2013-10-14 08:27:00,
2013-10-14 03:32:00,40.5,35.5,30.37,WSW,253,0.0,0.0,82,0.00,,CLR,0.00,VWS V14.01,2013-10-14 08:32:00,
2013-10-14 03:38:00,40.5,35.8,30.37,WSW,253,0.0,0.0,83,0.00,,CLR,0.00,VWS V14.01,2013-10-14 08:38:00,
2013-10-14 03:43:00,40.5,35.8,30.36,WSW,253,0.0,0.0,83,0.00,,CLR,0.00,VWS V14.01,2013-10-14 08:43:00,
2013-10-14 03:48:00,40.5,35.8,30.36,WSW,253,0.0,0.0,83,0.00,,CLR,0.00,VWS V14.01,2013-10-14 08:48:00,
2013-10-14 03:53:00,40.4,35.7,30.36,WSW,253,0.0,0.0,83,0.00,,CLR,0.00,VWS V14.01,2013-10-14 08:53:00,
2013-10-14 03:58:00,40.4,35.7,30.36,WSW,253,0.0,0.0,83,0.00,,CLR,0.00,VWS V14.01,2013-10-14 08:58:00,
2013-10-14 04:04:00,40.2,35.5,30.35,WSW,253,0.0,0.0,83,0.00,,CLR,0.00,VWS V14.01,2013-10-14 09:04:00,
2013-10-14 04:09:00,40.2,35.5,30.35,WSW,253,0.0,0.0,83,0.00,,CLR,0.00,VWS V14.01,2013-10-14 09:09:00,
2013-10-14 04:14:00,40.2,35.8,30.35,WSW,253,0.0,0.0,84,0.00,,CLR,0.00,VWS V14.01,2013-10-14 09:14:00,
2013-10-14 04:19:00,40.3,35.6,30.35,WSW,253,0.0,0.0,83,0.00,,CLR,0.00,VWS V14.01,2013-10-14 09:19:00,
2013-10-14 04:24:00,40.4,36.0,30.35,WSW,253,0.0,0.0,84,0.00,,CLR,0.00,VWS V14.01,2013-10-14 09:24:00,
2013-10-14 04:29:00,40.4,36.0,30.36,WSW,253,0.0,0.0,84,0.00,,CLR,0.00,VWS V14.01,2013-10-14 09:29:00,
2013-10-14 04:34:00,40.3,35.6,30.35,WSW,253,0.0,0.0,83,0.00,,CLR,0.00,VWS V14.01,2013-10-14 09:34:00,
2013-10-14 04:39:00,40.3,35.9,30.36,WSW,253,0.0,0.0,84,0.00,,CLR,0.00,VWS V14.01,2013-10-14 09:39:00,
2013-10-14 04:44:00,40.2,35.8,30.36,WSW,253,0.0,0.0,84,0.00,,CLR,0.00,VWS V14.01,2013-10-14 09:44:00,
2013-10-14 04:49:00,40.2,35.8,30.35,WSW,253,0.0,0.0,84,0.00,,CLR,0.00,VWS V14.01,2013-10-14 09:49:00,
2013-10-14 04:54:00,40.3,35.9,30.35,WSW,253,0.0,0.0,84,0.00,,CLR,0.00,VWS V14.01,2013-10-14 09:54:00,
2013-10-14 05:00:00,40.6,36.2,30.35,WSW,253,0.0,0.0,84,0.00,,CLR,0.00,VWS V14.01,2013-10-14 10:00:00,
2013-10-14 05:05:00,40.7,36.2,30.35,WSW,253,0.0,0.0,84,0.00,,CLR,0.00,VWS V14.01,2013-10-14 10:05:00,
2013-10-14 05:10:00,40.8,36.3,30.35,WSW,253,0.0,0.0,84,0.00,,CLR,0.00,VWS V14.01,2013-10-14 10:10:00,
2013-10-14 05:15:00,40.8,36.3,30.35,WSW,252,0.0,0.0,84,0.00,,CLR,0.00,VWS V14.01,2013-10-14 10:15:00,
2013-10-14 05:20:00,40.8,36.3,30.35,WSW,253,0.0,0.0,84,0.00,,CLR,0.00,VWS V14.01,2013-10-14 10:20:00,
2013-10-14 05:25:00,40.8,36.0,30.35,WSW,253,0.0,0.0,83,0.00,,CLR,0.00,VWS V14.01,2013-10-14 10:25:00,
2013-10-14 05:30:00,40.9,36.1,30.35,WSW,253,0.0,0.0,83,0.00,,CLR,0.00,VWS V14.01,2013-10-14 10:30:00,
2013-10-14 05:35:00,41.1,36.3,30.35,WSW,253,0.0,0.0,83,0.00,,CLR,0.00,VWS V14.01,2013-10-14 10:35:00,
2013-10-14 05:40:00,41.1,36.3,30.35,WSW,253,0.0,0.0,83,0.00,,CLR,0.00,VWS V14.01,2013-10-14 10:40:00,
2013-10-14 05:45:00,41.1,36.3,30.35,WSW,253,0.0,0.0,83,0.00,,CLR,0.00,VWS V14.01,2013-10-14 10:45:00,
2013-10-14 05:50:00,41.0,36.2,30.35,WSW,253,0.0,0.0,83,0.00,,CLR,0.00,VWS V14.01,2013-10-14 10:50:00,
2013-10-14 05:55:00,40.9,36.1,30.35,WSW,253,0.0,0.0,83,0.00,,CLR,0.00,VWS V14.01,2013-10-14 10:55:00,
2013-10-14 06:01:00,40.9,36.1,30.35,WSW,253,0.0,0.0,83,0.00,,CLR,0.00,VWS V14.01,2013-10-14 11:01:00,
2013-10-14 06:06:00,40.8,36.3,30.34,WSW,253,0.0,0.0,84,0.00,,CLR,0.00,VWS V14.01,2013-10-14 11:06:00,
2013-10-14 06:12:00,40.8,36.3,30.33,WSW,252,0.0,0.0,84,0.00,,CLR,0.00,VWS V14.01,2013-10-14 11:12:00,
2013-10-14 06:17:00,40.8,36.0,30.33,WSW,253,0.0,0.0,83,0.00,,CLR,0.00,VWS V14.01,2013-10-14 11:17:00,
2013-10-14 06:22:00,40.8,36.0,30.32,WSW,253,0.0,0.0,83,0.00,,CLR,0.00,VWS V14.01,2013-10-14 11:22:00,
2013-10-14 06:27:00,40.9,36.1,30.32,WSW,253,0.0,0.0,83,0.00,,CLR,0.00,VWS V14.01,2013-10-14 11:27:00,
2013-10-14 06:32:00,40.9,36.1,30.31,WSW,253,0.0,0.0,83,0.00,,CLR,0.00,VWS V14.01,2013-10-14 11:32:00,
2013-10-14 06:37:00,41.1,36.0,30.31,WSW,253,0.0,0.0,82,0.00,,CLR,0.00,VWS V14.01,2013-10-14 11:37:00,
2013-10-14 06:42:00,41.2,36.1,30.31,WSW,253,0.0,0.0,82,0.00,,CLR,0.00,VWS V14.01,2013-10-14 11:42:00,
2013-10-14 06:47:00,41.3,36.2,30.31,WSW,253,0.0,0.0,82,0.00,,CLR,0.00,VWS V14.01,2013-10-14 11:47:00,
2013-10-14 06:52:00,41.5,36.4,30.31,WSW,253,0.0,0.0,82,0.00,,CLR,0.00,VWS V14.01,2013-10-14 11:52:00,
2013-10-14 06:57:00,41.7,36.3,30.31,WSW,253,0.0,0.0,81,0.00,,CLR,0.00,VWS V14.01,2013-10-14 11:57:00,
2013-10-14 07:02:00,41.9,36.5,30.31,WSW,253,0.0,0.0,81,0.00,,CLR,0.00,VWS V14.01,2013-10-14 12:02:00,
2013-10-14 07:08:00,42.0,36.6,30.32,WSW,253,0.0,0.0,81,0.00,,CLR,0.00,VWS V14.01,2013-10-14 12:08:00,
2013-10-14 07:14:00,42.1,36.4,30.32,WSW,253,0.0,0.0,80,0.00,,CLR,0.00,VWS V14.01,2013-10-14 12:14:00,
2013-10-14 07:20:00,42.1,36.4,30.32,WSW,252,0.0,0.0,80,0.00,,CLR,0.00,VWS V14.01,2013-10-14 12:20:00,
2013-10-14 07:25:00,42.1,36.7,30.32,WSW,252,0.0,0.0,81,0.00,,CLR,0.00,VWS V14.01,2013-10-14 12:25:00,
2013-10-14 07:30:00,42.1,36.4,30.32,WSW,252,0.0,1.0,80,0.00,,CLR,0.00,VWS V14.01,2013-10-14 12:30:00,
2013-10-14 07:35:00,42.0,36.6,30.32,WSW,252,0.0,0.0,81,0.00,,CLR,0.00,VWS V14.01,2013-10-14 12:35:00,
2013-10-14 07:40:00,42.0,36.6,30.32,WSW,252,0.0,0.0,81,0.00,,CLR,0.00,VWS V14.01,2013-10-14 12:40:00,
2013-10-14 07:45:00,42.0,36.6,30.32,WSW,252,0.0,0.0,81,0.00,,CLR,0.00,VWS V14.01,2013-10-14 12:45:00,
2013-10-14 07:50:00,42.0,36.6,30.32,WSW,252,0.0,0.0,81,0.00,,CLR,0.00,VWS V14.01,2013-10-14 12:50:00,
2013-10-14 07:55:00,42.0,36.6,30.32,WSW,252,0.0,0.0,81,0.00,,CLR,0.00,VWS V14.01,2013-10-14 12:55:00,
2013-10-14 08:00:00,42.0,36.6,30.32,WSW,252,0.0,0.0,81,0.00,,CLR,0.00,VWS V14.01,2013-10-14 13:00:00,
2013-10-14 08:06:00,42.1,36.7,30.32,WSW,252,0.0,0.0,81,0.00,,CLR,0.00,VWS V14.01,2013-10-14 13:06:00,
2013-10-14 08:12:00,42.1,36.7,30.32,WSW,252,0.0,0.0,81,0.00,,CLR,0.00,VWS V14.01,2013-10-14 13:12:00,
2013-10-14 08:17:00,42.1,36.7,30.32,WSW,252,0.0,0.0,81,0.00,,CLR,0.00,VWS V14.01,2013-10-14 13:17:00,
2013-10-14 08:22:00,42.2,37.1,30.32,WSW,252,0.0,0.0,82,0.00,,CLR,0.00,VWS V14.01,2013-10-14 13:22:00,
2013-10-14 08:27:00,42.2,37.1,30.31,WSW,252,0.0,0.0,82,0.00,,CLR,0.00,VWS V14.01,2013-10-14 13:27:00,
2013-10-14 08:32:00,42.2,37.1,30.31,WSW,252,0.0,0.0,82,0.00,,CLR,0.00,VWS V14.01,2013-10-14 13:32:00,
2013-10-14 08:38:00,42.3,37.2,30.31,WSW,252,0.0,0.0,82,0.00,,CLR,0.00,VWS V14.01,2013-10-14 13:38:00,
2013-10-14 08:43:00,42.5,37.4,30.32,WSW,252,0.0,0.0,82,0.00,,CLR,0.00,VWS V14.01,2013-10-14 13:43:00,
2013-10-14 08:49:00,42.8,37.7,30.32,WSW,252,0.0,0.0,82,0.00,,CLR,0.00,VWS V14.01,2013-10-14 13:49:00,
2013-10-14 08:54:00,43.1,38.0,30.32,NW,309,0.0,0.0,82,0.00,,CLR,0.00,VWS V14.01,2013-10-14 13:54:00,
2013-10-14 08:59:00,43.3,38.2,30.32,NW,309,0.0,0.0,82,0.00,,CLR,0.00,VWS V14.01,2013-10-14 13:59:00,
2013-10-14 09:04:00,43.6,38.2,30.32,NW,309,0.0,0.0,81,0.00,,CLR,0.00,VWS V14.01,2013-10-14 14:04:00,
2013-10-14 09:09:00,43.8,38.4,30.32,NW,309,0.0,1.0,81,0.00,,CLR,0.00,VWS V14.01,2013-10-14 14:09:00,
2013-10-14 09:14:00,44.1,38.3,30.32,NW,309,0.0,0.0,80,0.00,,CLR,0.00,VWS V14.01,2013-10-14 14:14:00,
2013-10-14 09:19:00,44.3,38.5,30.33,North,360,0.0,0.0,80,0.00,,CLR,0.00,VWS V14.01,2013-10-14 14:19:00,
2013-10-14 09:24:00,44.4,38.6,30.33,ENE,71,0.0,0.0,80,0.00,,CLR,0.00,VWS V14.01,2013-10-14 14:24:00,
2013-10-14 09:29:00,44.6,38.8,30.33,ENE,71,0.0,0.0,80,0.00,,CLR,0.00,VWS V14.01,2013-10-14 14:29:00,
2013-10-14 09:34:00,44.7,38.9,30.34,ENE,71,0.0,0.0,80,0.00,,CLR,0.00,VWS V14.01,2013-10-14 14:34:00,
2013-10-14 09:39:00,44.9,39.1,30.34,ENE,72,0.0,0.0,80,0.00,,CLR,0.00,VWS V14.01,2013-10-14 14:39:00,
2013-10-14 09:44:00,45.1,39.3,30.34,ENE,71,0.0,0.0,80,0.00,,CLR,0.00,VWS V14.01,2013-10-14 14:44:00,
2013-10-14 09:49:00,45.4,39.6,30.34,ENE,72,0.0,0.0,80,0.00,,CLR,0.00,VWS V14.01,2013-10-14 14:49:00,
2013-10-14 09:54:00,45.6,39.8,30.34,ENE,71,0.0,0.0,80,0.00,,CLR,0.00,VWS V14.01,2013-10-14 14:54:00,
2013-10-14 09:59:00,45.7,39.6,30.33,ENE,71,0.0,0.0,79,0.00,,CLR,0.00,VWS V14.01,2013-10-14 14:59:00,
2013-10-14 10:04:00,45.8,39.7,30.33,ENE,71,0.0,0.0,79,0.00,,CLR,0.00,VWS V14.01,2013-10-14 15:04:00,
2013-10-14 10:09:00,46.0,39.9,30.34,ENE,71,0.0,0.0,79,0.00,,CLR,0.00,VWS V14.01,2013-10-14 15:09:00,
2013-10-14 10:14:00,46.3,40.5,30.33,ENE,71,0.0,0.0,80,0.00,,CLR,0.00,VWS V14.01,2013-10-14 15:14:00,
2013-10-14 10:19:00,46.6,40.8,30.33,ENE,71,0.0,0.0,80,0.00,,CLR,0.00,VWS V14.01,2013-10-14 15:19:00,
2013-10-14 10:24:00,47.0,41.2,30.33,ENE,72,0.0,0.0,80,0.00,,CLR,0.00,VWS V14.01,2013-10-14 15:24:00,
2013-10-14 10:29:00,47.3,41.1,30.32,NNE,26,2.0,2.0,79,0.00,,CLR,0.00,VWS V14.01,2013-10-14 15:29:00,
2013-10-14 10:35:00,47.6,41.1,30.31,NNE,32,1.0,1.0,78,0.00,,CLR,0.00,VWS V14.01,2013-10-14 15:35:00,
2013-10-14 10:40:00,47.8,41.0,30.31,NNE,32,0.0,0.0,77,0.00,,,0.00,VWS V14.01,2013-10-14 15:40:00,
2013-10-14 10:45:00,48.1,41.2,30.31,NNE,32,0.0,0.0,77,0.00,,,0.00,VWS V14.01,2013-10-14 15:45:00,
2013-10-14 10:50:00,48.3,41.1,30.30,NNE,32,0.0,2.0,76,0.00,,,0.00,VWS V14.01,2013-10-14 15:50:00,
2013-10-14 10:55:00,48.5,41.3,30.30,NNE,32,0.0,0.0,76,0.00,,,0.00,VWS V14.01,2013-10-14 15:55:00,
2013-10-14 11:00:00,48.5,41.0,30.30,NNE,33,0.0,0.0,75,0.00,,CLR,0.00,VWS V14.01,2013-10-14 16:00:00,
2013-10-14 11:05:00,48.5,41.3,30.29,NNE,33,0.0,0.0,76,0.00,,CLR,0.00,VWS V14.01,2013-10-14 16:05:00,
2013-10-14 11:10:00,48.5,41.3,30.29,NNE,33,0.0,0.0,76,0.00,,CLR,0.00,VWS V14.01,2013-10-14 16:10:00,
2013-10-14 11:16:00,48.5,41.6,30.29,NE,34,0.0,0.0,77,0.00,,CLR,0.00,VWS V14.01,2013-10-14 16:16:00,
2013-10-14 11:21:00,48.7,41.8,30.29,NE,40,0.0,0.0,77,0.00,,CLR,0.00,VWS V14.01,2013-10-14 16:21:00,
2013-10-14 11:26:00,48.8,41.9,30.28,NE,41,0.0,0.0,77,0.00,,CLR,0.00,VWS V14.01,2013-10-14 16:26:00,
2013-10-14 11:31:00,49.1,41.9,30.28,NE,41,0.0,0.0,76,0.00,,CLR,0.00,VWS V14.01,2013-10-14 16:31:00,
2013-10-14 11:36:00,49.3,41.4,30.27,NE,41,0.0,2.0,74,0.00,,CLR,0.00,VWS V14.01,2013-10-14 16:36:00,
2013-10-14 11:41:00,49.5,41.6,30.27,NE,37,0.0,0.0,74,0.00,,CLR,0.00,VWS V14.01,2013-10-14 16:41:00,
2013-10-14 11:46:00,49.8,41.9,30.26,NNE,29,0.0,0.0,74,0.00,,CLR,0.00,VWS V14.01,2013-10-14 16:46:00,
2013-10-14 11:51:00,50.0,41.7,30.26,NNE,21,0.0,2.0,73,0.00,,CLR,0.00,VWS V14.01,2013-10-14 16:51:00,
2013-10-14 11:56:00,50.2,41.2,30.26,ENE,57,0.0,3.0,71,0.00,,CLR,0.00,VWS V14.01,2013-10-14 16:56:00,
2013-10-14 12:02:00,50.4,41.0,30.26,ENE,61,0.0,0.0,70,0.00,,CLR,0.00,VWS V14.01,2013-10-14 17:02:00,
2013-10-14 12:07:00,50.7,41.7,30.25,ENE,61,0.0,0.0,71,0.00,,CLR,0.00,VWS V14.01,2013-10-14 17:07:00,
2013-10-14 12:12:00,51.0,41.6,30.25,ENE,60,0.0,1.0,70,0.00,,CLR,0.00,VWS V14.01,2013-10-14 17:12:00,
2013-10-14 12:17:00,51.3,41.9,30.24,ENE,57,0.0,0.0,70,0.00,,CLR,0.00,VWS V14.01,2013-10-14 17:17:00,
2013-10-14 12:22:00,51.5,41.7,30.24,East,90,0.0,0.0,69,0.00,,CLR,0.00,VWS V14.01,2013-10-14 17:22:00,
2013-10-14 12:27:00,51.8,41.6,30.24,East,88,0.0,0.0,68,0.00,,CLR,0.00,VWS V14.01,2013-10-14 17:27:00,
2013-10-14 12:32:00,52.3,41.7,30.24,East,88,0.0,0.0,67,0.00,,CLR,0.00,VWS V14.01,2013-10-14 17:32:00,
2013-10-14 12:37:00,52.8,42.2,30.24,ENE,61,0.0,2.0,67,0.00,,CLR,0.00,VWS V14.01,2013-10-14 17:37:00,
2013-10-14 12:42:00,53.3,41.8,30.23,ENE,61,0.0,0.0,65,0.00,,CLR,0.00,VWS V14.01,2013-10-14 17:42:00,
2013-10-14 12:47:00,53.5,41.2,30.22,East,94,5.0,6.0,63,0.00,,CLR,0.00,VWS V14.01,2013-10-14 17:47:00,
2013-10-14 12:52:00,53.6,40.9,30.22,ESE,119,5.0,5.0,62,0.00,,CLR,0.00,VWS V14.01,2013-10-14 17:52:00,
2013-10-14 12:57:00,53.6,41.7,30.22,East,99,0.0,0.0,64,0.00,,CLR,0.00,VWS V14.01,2013-10-14 17:57:00,
2013-10-14 13:02:00,53.6,41.7,30.21,North,5,0.0,0.0,64,0.00,,CLR,0.00,VWS V14.01,2013-10-14 18:02:00,
2013-10-14 13:07:00,53.4,41.1,30.20,NE,38,0.0,0.0,63,0.00,,CLR,0.00,VWS V14.01,2013-10-14 18:07:00,
2013-10-14 13:12:00,53.3,41.0,30.20,NE,41,0.0,0.0,63,0.00,,CLR,0.00,VWS V14.01,2013-10-14 18:12:00,
2013-10-14 13:17:00,53.1,40.4,30.19,ENE,67,0.0,4.0,62,0.00,,CLR,0.00,VWS V14.01,2013-10-14 18:17:00,
2013-10-14 13:22:00,53.1,40.8,30.19,ENE,58,0.0,0.0,63,0.00,,CLR,0.00,VWS V14.01,2013-10-14 18:22:00,
2013-10-14 13:28:00,53.1,40.8,30.18,ENE,59,0.0,0.0,63,0.00,,CLR,0.00,VWS V14.01,2013-10-14 18:28:00,
2013-10-14 13:34:00,53.0,40.8,30.18,ENE,59,0.0,0.0,63,0.00,,CLR,0.00,VWS V14.01,2013-10-14 18:34:00,
2013-10-14 13:39:00,53.0,40.8,30.17,NE,35,0.0,0.0,63,0.00,,CLR,0.00,VWS V14.01,2013-10-14 18:39:00,
2013-10-14 13:44:00,53.1,40.8,30.17,NE,46,0.0,1.0,63,0.00,,CLR,0.00,VWS V14.01,2013-10-14 18:44:00,
2013-10-14 13:49:00,53.1,40.8,30.17,NE,47,0.0,0.0,63,0.00,,CLR,0.00,VWS V14.01,2013-10-14 18:49:00,
2013-10-14 13:54:00,53.2,40.5,30.17,NE,52,0.0,0.0,62,0.00,,CLR,0.00,VWS V14.01,2013-10-14 18:54:00,
2013-10-14 13:59:00,53.2,41.3,30.17,NE,52,0.0,0.0,64,0.00,,CLR,0.00,VWS V14.01,2013-10-14 18:59:00,
2013-10-14 14:04:00,53.1,40.4,30.16,NE,46,0.0,0.0,62,0.00,,CLR,0.00,VWS V14.01,2013-10-14 19:04:00,
2013-10-14 14:10:00,53.1,40.0,30.16,East,82,0.0,0.0,61,0.00,,CLR,0.00,VWS V14.01,2013-10-14 19:10:00,
2013-10-14 14:15:00,53.0,40.3,30.16,East,82,0.0,0.0,62,0.00,,CLR,0.00,VWS V14.01,2013-10-14 19:15:00,
2013-10-14 14:20:00,53.0,40.8,30.16,East,80,0.0,2.0,63,0.00,,SCT110,0.00,VWS V14.01,2013-10-14 19:20:00,
2013-10-14 14:25:00,53.0,40.8,30.15,NNE,13,0.0,0.0,63,0.00,,SCT110,0.00,VWS V14.01,2013-10-14 19:25:00,
2013-10-14 14:30:00,53.0,40.3,30.15,NNE,24,0.0,0.0,62,0.00,,SCT110,0.00,VWS V14.01,2013-10-14 19:30:00,
2013-10-14 14:35:00,52.9,39.8,30.15,ENE,76,1.0,2.0,61,0.00,,SCT110,0.00,VWS V14.01,2013-10-14 19:35:00,
2013-10-14 14:40:00,52.9,39.8,30.14,ENE,67,0.0,0.0,61,0.00,,SCT120,0.00,VWS V14.01,2013-10-14 19:40:00,
2013-10-14 14:45:00,53.0,40.8,30.14,ENE,57,0.0,1.0,63,0.00,,SCT120,0.00,VWS V14.01,2013-10-14 19:45:00,
2013-10-14 14:50:00,53.1,40.4,30.13,ENE,57,0.0,0.0,62,0.00,,SCT120,0.00,VWS V14.01,2013-10-14 19:50:00,
2013-10-14 14:55:00,53.1,40.4,30.13,NNE,28,0.0,5.0,62,0.00,,SCT120,0.00,VWS V14.01,2013-10-14 19:55:00,
2013-10-14 15:00:00,53.0,39.9,30.12,NNE,33,0.0,2.0,61,0.00,,CLR,0.00,VWS V14.01,2013-10-14 20:00:00,
2013-10-14 15:05:00,53.0,40.3,30.12,NE,44,0.0,0.0,62,0.00,,CLR,0.00,VWS V14.01,2013-10-14 20:05:00,
2013-10-14 15:10:00,52.9,39.8,30.11,East,96,0.0,0.0,61,0.00,,CLR,0.00,VWS V14.01,2013-10-14 20:10:00,
2013-10-14 15:15:00,52.9,40.7,30.11,East,86,0.0,1.0,63,0.00,,CLR,0.00,VWS V14.01,2013-10-14 20:15:00,
2013-10-14 15:20:00,52.9,40.2,30.11,East,86,0.0,0.0,62,0.00,,SCT110,0.00,VWS V14.01,2013-10-14 20:20:00,
2013-10-14 15:26:00,52.8,40.6,30.13,ENE,63,0.0,3.0,63,0.00,,SCT110,0.00,VWS V14.01,2013-10-14 20:26:00,
2013-10-14 15:31:00,52.8,40.2,30.13,ENE,63,0.0,0.0,62,0.00,,SCT110,0.00,VWS V14.01,2013-10-14 20:31:00,
2013-10-14 15:36:00,52.8,40.6,30.13,ENE,63,0.0,0.0,63,0.00,,SCT110,0.00,VWS V14.01,2013-10-14 20:36:00,
2013-10-14 15:41:00,52.7,40.9,30.13,ENE,63,0.0,0.0,64,0.00,,BKN110,0.00,VWS V14.01,2013-10-14 20:41:00,
2013-10-14 15:46:00,52.6,40.4,30.13,ENE,63,0.0,0.0,63,0.00,,BKN110,0.00,VWS V14.01,2013-10-14 20:46:00,
2013-10-14 15:51:00,52.5,40.3,30.12,ENE,63,0.0,0.0,63,0.00,,BKN110,0.00,VWS V14.01,2013-10-14 20:51:00,
2013-10-14 15:57:00,52.5,40.3,30.11,ENE,71,0.0,0.0,63,0.00,,BKN110,0.00,VWS V14.01,2013-10-14 20:57:00,
2013-10-14 16:02:00,52.5,40.7,30.10,ESE,105,0.0,0.0,64,0.00,,BKN110,0.00,VWS V14.01,2013-10-14 21:02:00,
2013-10-14 16:04:00,52.5,40.3,30.11,ESE,105,0.0,1.0,63,0.00,,BKN110,0.00,VWS V14.01,2013-10-14 21:04:00,
2013-10-14 16:09:00,52.4,40.2,30.11,East,99,0.0,0.0,63,0.00,,BKN110,0.00,VWS V14.01,2013-10-14 21:09:00,
2013-10-14 16:14:00,52.4,40.6,30.10,East,99,0.0,1.0,64,0.00,,BKN110,0.00,VWS V14.01,2013-10-14 21:14:00,
2013-10-14 16:19:00,52.3,40.5,30.10,East,99,0.0,0.0,64,0.00,,BKN110,0.00,VWS V14.01,2013-10-14 21:19:00,
2013-10-14 16:24:00,52.3,40.5,30.10,East,98,0.0,0.0,64,0.00,,SCT110,0.00,VWS V14.01,2013-10-14 21:24:00,
2013-10-14 16:29:00,52.2,40.4,30.09,ESE,105,0.0,0.0,64,0.00,,SCT110,0.00,VWS V14.01,2013-10-14 21:29:00,
2013-10-14 16:34:00,52.2,40.0,30.10,East,96,2.0,2.0,63,0.00,,SCT110,0.00,VWS V14.01,2013-10-14 21:34:00,
2013-10-14 16:39:00,52.1,40.3,30.09,ENE,65,0.0,0.0,64,0.00,,SCT110,0.00,VWS V14.01,2013-10-14 21:39:00,
2013-10-14 16:45:00,52.2,40.8,30.09,ENE,59,0.0,1.0,65,0.00,,BKN120,0.00,VWS V14.01,2013-10-14 21:45:00,
2013-10-14 16:50:00,52.1,40.3,30.09,ENE,73,0.0,2.0,64,0.00,,BKN120,0.00,VWS V14.01,2013-10-14 21:50:00,
2013-10-14 16:55:00,52.1,41.1,30.08,NE,52,0.0,2.0,66,0.00,,BKN120,0.00,VWS V14.01,2013-10-14 21:55:00,
2013-10-14 17:00:00,51.9,41.3,30.09,ENE,78,0.0,0.0,67,0.00,,SCT120,0.00,VWS V14.01,2013-10-14 22:00:00,
2013-10-14 17:06:00,51.9,41.3,30.09,ENE,65,0.0,1.0,67,0.00,,SCT120,0.00,VWS V14.01,2013-10-14 22:06:00,
2013-10-14 17:11:00,51.7,41.1,30.08,NNE,32,0.0,1.0,67,0.00,,SCT120,0.00,VWS V14.01,2013-10-14 22:11:00,
2013-10-14 17:16:00,51.7,41.5,30.08,NNE,22,0.0,0.0,68,0.00,,SCT120,0.00,VWS V14.01,2013-10-14 22:16:00,
2013-10-14 17:21:00,51.6,41.4,30.08,NNE,26,0.0,0.0,68,0.00,,SCT110,0.00,VWS V14.01,2013-10-14 22:21:00,
2013-10-14 17:26:00,51.5,41.3,30.08,East,96,0.0,0.0,68,0.00,,SCT110,0.00,VWS V14.01,2013-10-14 22:26:00,
2013-10-14 17:31:00,51.5,41.7,30.07,ESE,115,0.0,0.0,69,0.00,,SCT110,0.00,VWS V14.01,2013-10-14 22:31:00,
2013-10-14 17:36:00,51.4,41.6,30.08,East,79,0.0,0.0,69,0.00,,SCT110,0.00,VWS V14.01,2013-10-14 22:36:00,
2013-10-14 17:41:00,51.4,41.2,30.07,WNW,300,0.0,1.0,68,0.00,,BKN110,0.00,VWS V14.01,2013-10-14 22:41:00,
2013-10-14 17:46:00,51.4,41.6,30.06,East,101,0.0,0.0,69,0.00,,BKN110,0.00,VWS V14.01,2013-10-14 22:46:00,
2013-10-14 17:51:00,51.3,41.5,30.07,ESE,104,1.0,1.0,69,0.00,,BKN110,0.00,VWS V14.01,2013-10-14 22:51:00,
2013-10-14 17:56:00,51.3,41.5,30.07,ESE,104,0.0,0.0,69,0.00,,BKN110,0.00,VWS V14.01,2013-10-14 22:56:00,
2013-10-14 18:01:00,51.3,41.5,30.07,ESE,104,0.0,0.0,69,0.00,,-RA,0.00,VWS V14.01,2013-10-14 23:01:00,
2013-10-14 18:06:00,51.4,42.0,30.07,ESE,102,5.0,7.0,70,0.00,,-RA,0.00,VWS V14.01,2013-10-14 23:06:00,
2013-10-14 18:11:00,51.3,42.6,30.07,East,98,0.0,0.0,72,0.00,,-RA,0.00,VWS V14.01,2013-10-14 23:11:00,
2013-10-14 18:16:00,51.1,43.1,30.07,East,98,0.0,0.0,74,0.00,,-RA,0.00,VWS V14.01,2013-10-14 23:16:00,
2013-10-14 18:21:00,50.8,43.5,30.08,East,98,0.0,0.0,76,0.00,,BKN090,0.00,VWS V14.01,2013-10-14 23:21:00,
2013-10-14 18:27:00,50.3,43.7,30.08,East,101,0.0,0.0,78,0.00,,BKN090,0.00,VWS V14.01,2013-10-14 23:27:00,
2013-10-14 18:32:00,49.9,43.7,30.07,ESE,107,0.0,5.0,79,0.01,,BKN090,0.01,VWS V14.01,2013-10-14 23:32:00,
2013-10-14 18:37:00,49.6,43.7,30.07,ESE,111,0.0,0.0,80,0.01,,BKN090,0.01,VWS V14.01,2013-10-14 23:37:00,
2013-10-14 18:42:00,49.4,43.8,30.07,ESE,111,0.0,0.0,81,0.01,,-RA,0.01,VWS V14.01,2013-10-14 23:42:00,
2013-10-14 18:47:00,49.1,43.8,30.06,ESE,111,0.0,0.0,82,0.01,,-RA,0.01,VWS V14.01,2013-10-14 23:47:00,
2013-10-14 18:52:00,49.0,43.8,30.06,ESE,111,0.0,0.0,82,0.01,,-RA,0.01,VWS V14.01,2013-10-14 23:52:00,
2013-10-14 18:57:00,48.8,43.9,30.06,ESE,111,0.0,0.0,83,0.01,,-RA,0.01,VWS V14.01,2013-10-14 23:57:00,
2013-10-14 19:02:00,48.8,43.6,30.05,ESE,111,0.0,0.0,82,0.01,,-RA,0.01,VWS V14.01,2013-10-15 00:02:00,
2013-10-14 19:07:00,48.8,43.6,30.05,ESE,111,0.0,0.0,82,0.01,,-RA,0.01,VWS V14.01,2013-10-15 00:07:00,
2013-10-14 19:12:00,48.9,43.3,30.04,ESE,111,0.0,0.0,81,0.01,,-RA,0.01,VWS V14.01,2013-10-15 00:12:00,
2013-10-14 19:17:00,49.1,43.2,30.03,ESE,111,0.0,0.0,80,0.01,,-RA,0.01,VWS V14.01,2013-10-15 00:17:00,
2013-10-14 19:22:00,49.2,43.3,30.03,ESE,111,0.0,1.0,80,0.01,,OVC110,0.01,VWS V14.01,2013-10-15 00:22:00,
2013-10-14 19:27:00,49.3,43.4,30.02,ESE,111,0.0,0.0,80,0.01,,OVC110,0.01,VWS V14.01,2013-10-15 00:27:00,
2013-10-14 19:32:00,49.4,43.5,30.03,ESE,111,0.0,0.0,80,0.01,,OVC110,0.01,VWS V14.01,2013-10-15 00:32:00,
2013-10-14 19:37:00,49.4,43.5,30.03,ESE,111,0.0,0.0,80,0.00,,OVC110,0.01,VWS V14.01,2013-10-15 00:37:00,
2013-10-14 19:42:00,49.5,43.6,30.03,ESE,111,0.0,0.0,80,0.00,,OVC110,0.01,VWS V14.01,2013-10-15 00:42:00,
2013-10-14 19:47:00,49.6,43.7,30.03,ESE,108,0.0,1.0,80,0.00,,OVC110,0.01,VWS V14.01,2013-10-15 00:47:00,
2013-10-14 19:52:00,49.7,43.8,30.03,ESE,109,0.0,2.0,80,0.00,,OVC110,0.01,VWS V14.01,2013-10-15 00:52:00,
2013-10-14 19:57:00,49.8,43.9,30.02,ESE,110,0.0,0.0,80,0.00,,OVC110,0.01,VWS V14.01,2013-10-15 00:57:00,
2013-10-14 20:03:00,49.7,44.1,30.01,ESE,103,0.0,1.0,81,0.00,,OVC090,0.01,VWS V14.01,2013-10-15 01:03:00,
2013-10-14 20:08:00,49.7,44.4,30.01,ESE,103,0.0,0.0,82,0.01,,OVC090,0.02,VWS V14.01,2013-10-15 01:08:00,
2013-10-14 20:13:00,49.6,44.3,30.00,ESE,103,0.0,0.0,82,0.01,,OVC090,0.02,VWS V14.01,2013-10-15 01:13:00,
2013-10-14 20:18:00,49.5,44.6,29.99,ESE,103,0.0,0.0,83,0.01,,OVC090,0.02,VWS V14.01,2013-10-15 01:18:00,
2013-10-14 20:23:00,49.6,44.3,29.99,ESE,104,0.0,2.0,82,0.01,,OVC090,0.02,VWS V14.01,2013-10-15 01:23:00,
2013-10-14 20:28:00,49.7,44.4,29.99,East,90,0.0,4.0,82,0.01,,RA,0.02,VWS V14.01,2013-10-15 01:28:00,
2013-10-14 20:34:00,49.7,44.4,29.99,ENE,75,0.0,0.0,82,0.01,,RA,0.02,VWS V14.01,2013-10-15 01:34:00,
2013-10-14 20:39:00,49.8,44.5,29.98,East,85,0.0,4.0,82,0.01,,RA,0.02,VWS V14.01,2013-10-15 01:39:00,
2013-10-14 20:44:00,49.9,44.6,29.98,East,98,0.0,1.0,82,0.01,,BKN090,0.02,VWS V14.01,2013-10-15 01:44:00,
2013-10-14 20:49:00,50.0,44.7,29.97,East,100,0.0,1.0,82,0.01,,BKN090,0.02,VWS V14.01,2013-10-15 01:49:00,
2013-10-14 20:54:00,50.1,44.8,29.98,East,91,0.0,0.0,82,0.01,,BKN090,0.02,VWS V14.01,2013-10-15 01:54:00,
2013-10-14 21:00:00,50.3,44.7,29.97,East,97,0.0,8.0,81,0.01,,-RA,0.02,VWS V14.01,2013-10-15 02:00:00,
2013-10-14 21:07:00,50.4,44.8,29.97,NE,40,0.0,0.0,81,0.00,,-RA,0.02,VWS V14.01,2013-10-15 02:07:00,
2013-10-14 21:12:00,50.5,44.9,29.97,ESE,105,2.0,6.0,81,0.00,,-RA,0.02,VWS V14.01,2013-10-15 02:12:00,
2013-10-14 21:17:00,50.6,45.0,29.95,East,96,2.0,4.0,81,0.00,,-RA,0.02,VWS V14.01,2013-10-15 02:17:00,
2013-10-14 21:22:00,50.7,45.1,29.95,ESE,115,2.0,2.0,81,0.00,,OVC100,0.02,VWS V14.01,2013-10-15 02:22:00,
2013-10-14 21:27:00,50.9,45.3,29.95,ENE,71,0.0,4.0,81,0.00,,OVC100,0.02,VWS V14.01,2013-10-15 02:27:00,
2013-10-14 21:32:00,50.9,45.6,29.95,NNE,20,2.0,4.0,82,0.00,,OVC100,0.02,VWS V14.01,2013-10-15 02:32:00,
2013-10-14 21:38:00,50.9,45.9,29.95,NNE,19,0.0,5.0,83,0.00,,OVC100,0.02,VWS V14.01,2013-10-15 02:38:00,
2013-10-14 21:44:00,50.7,46.0,29.95,ENE,74,0.0,0.0,84,0.01,,-RA,0.03,VWS V14.01,2013-10-15 02:44:00,
2013-10-14 21:49:00,50.4,46.1,29.95,ENE,57,0.0,0.0,85,0.01,,-RA,0.03,VWS V14.01,2013-10-15 02:49:00,
2013-10-14 21:54:00,50.2,46.2,29.95,ENE,74,0.0,0.0,86,0.02,,-RA,0.04,VWS V14.01,2013-10-15 02:54:00,
2013-10-14 21:59:00,50.0,46.3,29.95,NE,54,1.0,1.0,87,0.02,,-RA,0.04,VWS V14.01,2013-10-15 02:59:00,
2013-10-14 22:04:00,50.0,46.3,29.95,East,94,0.0,3.0,87,0.02,,-RA,0.04,VWS V14.01,2013-10-15 03:04:00,
2013-10-14 22:09:00,50.0,46.3,29.95,NE,36,0.0,0.0,87,0.02,,-RA,0.04,VWS V14.01,2013-10-15 03:09:00,
2013-10-14 22:14:00,50.1,46.4,29.95,NE,36,0.0,0.0,87,0.02,,-RA,0.04,VWS V14.01,2013-10-15 03:14:00,
2013-10-14 22:20:00,50.1,46.4,29.96,ENE,67,0.0,0.0,87,0.02,,-RA,0.04,VWS V14.01,2013-10-15 03:20:00,
2013-10-14 22:25:00,50.1,46.7,29.98,ENE,57,0.0,1.0,88,0.03,,-RA,0.05,VWS V14.01,2013-10-15 03:25:00,
2013-10-14 22:30:00,50.0,46.9,29.99,ENE,63,0.0,0.0,89,0.05,,-RA,0.07,VWS V14.01,2013-10-15 03:30:00,
2013-10-14 22:35:00,49.8,47.0,29.98,ENE,63,0.0,0.0,90,0.09,,-RA,0.11,VWS V14.01,2013-10-15 03:35:00,
2013-10-14 22:40:00,49.6,46.8,29.97,ENE,63,0.0,0.0,90,0.12,,-RA,0.14,VWS V14.01,2013-10-15 03:40:00,
2013-10-14 22:45:00,49.4,46.9,29.98,ENE,63,0.0,0.0,91,0.13,,-RA,0.16,VWS V14.01,2013-10-15 03:45:00,
2013-10-14 22:50:00,49.2,47.0,29.98,ENE,63,0.0,0.0,92,0.15,,-RA,0.18,VWS V14.01,2013-10-15 03:50:00,
2013-10-14 22:55:00,49.1,46.9,29.98,ENE,71,0.0,0.0,92,0.15,,-RA,0.19,VWS V14.01,2013-10-15 03:55:00,
2013-10-14 23:00:00,49.0,46.8,29.97,ENE,71,0.0,0.0,92,0.16,, +RA,0.20,VWS V14.01,2013-10-15 04:00:00,
2013-10-14 23:02:00,49.0,46.8,29.97,ENE,71,0.0,0.0,92,0.16,, +RA,0.20,VWS V14.01,2013-10-15 04:02:00,
2013-10-14 23:03:00,49.0,47.1,29.97,ENE,71,0.0,0.0,93,0.17,, +RA,0.21,VWS V14.01,2013-10-15 04:03:00,
2013-10-14 23:05:00,49.0,47.1,29.96,ENE,71,0.0,0.0,93,0.18,, +RA,0.22,VWS V14.01,2013-10-15 04:05:00,
2013-10-14 23:06:00,49.0,47.1,29.96,ENE,71,0.0,0.0,93,0.18,, +RA,0.22,VWS V14.01,2013-10-15 04:06:00,
2013-10-14 23:11:00,48.9,47.0,29.96,ENE,65,0.0,0.0,93,0.19,, +RA,0.23,VWS V14.01,2013-10-15 04:11:00,
2013-10-14 23:13:00,48.9,47.0,29.96,ENE,65,0.0,0.0,93,0.20,, +RA,0.24,VWS V14.01,2013-10-15 04:13:00,
2013-10-14 23:18:00,48.8,46.9,29.95,ENE,68,0.0,0.0,93,0.22,, +RA,0.26,VWS V14.01,2013-10-15 04:18:00,
2013-10-14 23:23:00,48.8,47.2,29.95,ENE,69,0.0,0.0,94,0.24,,RA,0.28,VWS V14.01,2013-10-15 04:23:00,
2013-10-14 23:28:00,48.8,47.2,29.95,ENE,69,0.0,0.0,94,0.24,,RA,0.29,VWS V14.01,2013-10-15 04:28:00,
2013-10-14 23:33:00,48.7,47.0,29.96,ENE,69,0.0,0.0,94,0.22,,RA,0.31,VWS V14.01,2013-10-15 04:33:00,
2013-10-14 23:38:00,48.7,47.0,29.96,ENE,69,0.0,0.0,94,0.19,,RA,0.32,VWS V14.01,2013-10-15 04:38:00,
2013-10-14 23:43:00,48.7,47.0,29.95,East,79,0.0,2.0,94,0.20,,RA,0.35,VWS V14.01,2013-10-15 04:43:00,
2013-10-14 23:48:00,48.7,47.0,29.95,East,81,0.0,0.0,94,0.20,,RA,0.37,VWS V14.01,2013-10-15 04:48:00,
2013-10-14 23:54:00,48.6,47.0,29.96,East,88,0.0,0.0,94,0.21,,RA,0.40,VWS V14.01,2013-10-15 04:54:00,
2013-10-14 23:59:00,48.6,47.0,29.95,East,88,0.0,0.0,94,0.22,,RA,0.00,VWS V14.01,2013-10-15 04:59:00,